SB KEPS @ AMSAT $ORB10064.O Orbital Elements 10064.OSCAR
HR AMSAT ORBITAL ELEMENTS FOR OSCAR SATELLITES FROM WA5QGD FORT WORTH,TX March 5, 2010 Send Subscribe/unsubscribe to KEPS at http://www.amsat.org/mailman/listinfo/keps BID: ORB10064.O TO ALL RADIO AMATEURS BT
Satellite: AO-07 Catalog number: 07530 Epoch time: 10064.05552185 Element set: 719 Inclination: 101.4098 deg RA of node: 083.9414 deg Eccentricity: 0.0012121 Arg of perigee: 117.9442 deg Mean anomaly: 242.2857 deg Mean motion: 12.53577894 rev/day Decay rate: -2.7e-07 rev/day^2 Epoch rev: 61540 Checksum: 286
Satellite: FO-29 Catalog number: 24278 Epoch time: 10063.61072676 Element set: 260 Inclination: 098.5206 deg RA of node: 267.1662 deg Eccentricity: 0.0351236 Arg of perigee: 035.2258 deg Mean anomaly: 327.1555 deg Mean motion: 13.52948889 rev/day Decay rate: 6.5e-07 rev/day^2 Epoch rev: 66896 Checksum: 334
Satellite: SO-33 Catalog number: 25509 Epoch time: 10062.30031871 Element set: 661 Inclination: 031.4311 deg RA of node: 027.2919 deg Eccentricity: 0.0353790 Arg of perigee: 084.1291 deg Mean anomaly: 279.9583 deg Mean motion: 14.28292763 rev/day Decay rate: 3.9e-07 rev/day^2 Epoch rev: 59290 Checksum: 302
Satellite: RS-22 Catalog number: 27939 Epoch time: 10063.57903880 Element set: 24 Inclination: 097.9090 deg RA of node: 293.4117 deg Eccentricity: 0.0014297 Arg of perigee: 034.2512 deg Mean anomaly: 325.9618 deg Mean motion: 14.63387774 rev/day Decay rate: 1.47e-06 rev/day^2 Epoch rev: 34365 Checksum: 318
Satellite: VO-52 Catalog number: 28650 Epoch time: 10062.38107644 Element set: 448 Inclination: 097.7049 deg RA of node: 119.8777 deg Eccentricity: 0.0025910 Arg of perigee: 262.5814 deg Mean anomaly: 097.2508 deg Mean motion: 14.81692347 rev/day Decay rate: 1.83e-06 rev/day^2 Epoch rev: 26102 Checksum: 316
Satellite: SO-67 Catalog number: 35870 Epoch time: 10063.76346260 Element set: 503 Inclination: 097.3463 deg RA of node: 115.4636 deg Eccentricity: 0.0012845 Arg of perigee: 066.2279 deg Mean anomaly: 044.0006 deg Mean motion: 15.22918075 rev/day Decay rate: 7.08e-06 rev/day^2 Epoch rev: 2557 Checksum: 296
Satellite: HO-68 Catalog number: 36122 Epoch time: 10063.12887593 Element set: 147 Inclination: 100.4825 deg RA of node: 124.5721 deg Eccentricity: 0.0007169 Arg of perigee: 215.1515 deg Mean anomaly: 144.9136 deg Mean motion: 13.16279903 rev/day Decay rate: -4.5e-07 rev/day^2 Epoch rev: 1039 Checksum: 281
/EX SB KEPS @ AMSAT $ORB10064.D Orbital Elements 10064.MICROS
HR AMSAT ORBITAL ELEMENTS FOR THE MICROSATS FROM WA5QGD FORT WORTH,TX March 5, 2010 Send Subscribe/unsubscribe to KEPS at http://www.amsat.org/mailman/listinfo/keps BID: ORB10064.D TO ALL RADIO AMATEURS BT
Satellite: UO-11 Catalog number: 14781 Epoch time: 10063.55248666 Element set: 189 Inclination: 098.0686 deg RA of node: 114.9066 deg Eccentricity: 0.0008516 Arg of perigee: 210.7500 deg Mean anomaly: 149.3218 deg Mean motion: 14.79773055 rev/day Decay rate: -1.54e-06 rev/day^2 Epoch rev: 39633 Checksum: 313
Satellite: AO-16 Catalog number: 20439 Epoch time: 10063.36958177 Element set: 837 Inclination: 098.3194 deg RA of node: 025.4708 deg Eccentricity: 0.0011871 Arg of perigee: 115.8743 deg Mean anomaly: 244.3662 deg Mean motion: 14.31850318 rev/day Decay rate: 7.0e-08 rev/day^2 Epoch rev: 5038 Checksum: 302
Satellite: LO-19 Catalog number: 20442 Epoch time: 10062.96498891 Element set: 747 Inclination: 098.2802 deg RA of node: 031.3113 deg Eccentricity: 0.0012798 Arg of perigee: 112.4884 deg Mean anomaly: 247.7654 deg Mean motion: 14.32082706 rev/day Decay rate: -3.1e-07 rev/day^2 Epoch rev: 5049 Checksum: 301
Satellite: AO-27 Catalog number: 22825 Epoch time: 10062.86614911 Element set: 470 Inclination: 098.4741 deg RA of node: 013.6028 deg Eccentricity: 0.0007821 Arg of perigee: 214.8077 deg Mean anomaly: 145.2598 deg Mean motion: 14.29288595 rev/day Decay rate: 8.2e-07 rev/day^2 Epoch rev: 85700 Checksum: 312
Satellite: IO-26 Catalog number: 22826 Epoch time: 10063.02039991 Element set: 206 Inclination: 098.4679 deg RA of node: 014.3951 deg Eccentricity: 0.0008417 Arg of perigee: 209.6162 deg Mean anomaly: 150.4537 deg Mean motion: 14.29542557 rev/day Decay rate: -1.5e-07 rev/day^2 Epoch rev: 85713 Checksum: 302
Satellite: GO-32 Catalog number: 25397 Epoch time: 10062.71290436 Element set: 126 Inclination: 098.3162 deg RA of node: 075.9609 deg Eccentricity: 0.0001229 Arg of perigee: 163.6982 deg Mean anomaly: 196.4215 deg Mean motion: 14.23172675 rev/day Decay rate: 2.7e-07 rev/day^2 Epoch rev: 60504 Checksum: 296
Satellite: NO-44 Catalog number: 26931 Epoch time: 10063.68260559 Element set: 401 Inclination: 067.0507 deg RA of node: 113.2244 deg Eccentricity: 0.0006591 Arg of perigee: 263.8515 deg Mean anomaly: 096.1821 deg Mean motion: 14.29584987 rev/day Decay rate: -1.56e-06 rev/day^2 Epoch rev: 43981 Checksum: 310
Satellite: SO-50 Catalog number: 27607 Epoch time: 10063.21394762 Element set: 117 Inclination: 064.5603 deg RA of node: 315.3558 deg Eccentricity: 0.0037631 Arg of perigee: 125.8138 deg Mean anomaly: 234.6479 deg Mean motion: 14.71505981 rev/day Decay rate: 3.7e-07 rev/day^2 Epoch rev: 38693 Checksum: 308
Satellite: CO-55 Catalog number: 27844 Epoch time: 10063.65117429 Element set: 793 Inclination: 098.7134 deg RA of node: 074.1190 deg Eccentricity: 0.0010745 Arg of perigee: 110.6220 deg Mean anomaly: 249.6104 deg Mean motion: 14.20688081 rev/day Decay rate: 4.2e-07 rev/day^2 Epoch rev: 34624 Checksum: 282
Satellite: CO-57 Catalog number: 27848 Epoch time: 10063.52469558 Element set: 745 Inclination: 098.7171 deg RA of node: 073.0713 deg Eccentricity: 0.0010204 Arg of perigee: 113.4976 deg Mean anomaly: 246.7261 deg Mean motion: 14.20483520 rev/day Decay rate: 4.9e-07 rev/day^2 Epoch rev: 34618 Checksum: 306
Satellite: AO-51 Catalog number: 28375 Epoch time: 10063.55379522 Element set: 618 Inclination: 098.0576 deg RA of node: 063.0306 deg Eccentricity: 0.0085137 Arg of perigee: 054.8113 deg Mean anomaly: 306.1015 deg Mean motion: 14.40672092 rev/day Decay rate: 4.3e-07 rev/day^2 Epoch rev: 29844 Checksum: 289
Satellite: GENESAT1 Catalog number: 29655 Epoch time: 10063.17918662 Element set: 964 Inclination: 040.0222 deg RA of node: 345.0571 deg Eccentricity: 0.0007307 Arg of perigee: 283.5111 deg Mean anomaly: 076.4891 deg Mean motion: 15.76050162 rev/day Decay rate: 4.5747e-04 rev/day^2 Epoch rev: 18333 Checksum: 290
Satellite: CP3 Catalog number: 31129 Epoch time: 10063.35011781 Element set: 519 Inclination: 097.9543 deg RA of node: 108.4676 deg Eccentricity: 0.0101857 Arg of perigee: 198.4705 deg Mean anomaly: 161.2782 deg Mean motion: 14.52217008 rev/day Decay rate: 1.71e-06 rev/day^2 Epoch rev: 15264 Checksum: 288
Satellite: CO-65 Catalog number: 32785 Epoch time: 10063.35145705 Element set: 619 Inclination: 097.9081 deg RA of node: 129.6758 deg Eccentricity: 0.0013889 Arg of perigee: 266.6686 deg Mean anomaly: 093.2929 deg Mean motion: 14.81596830 rev/day Decay rate: 4.17e-06 rev/day^2 Epoch rev: 9996 Checksum: 367
Satellite: KKS-1 Catalog number: 33493 Epoch time: 10063.73101852 Element set: 264 Inclination: 098.0723 deg RA of node: 182.4187 deg Eccentricity: 0.0021080 Arg of perigee: 117.5504 deg Mean anomaly: 242.7862 deg Mean motion: 14.80878280 rev/day Decay rate: 5.36e-06 rev/day^2 Epoch rev: 6002 Checksum: 275
Satellite: SOHLA-1 Catalog number: 33496 Epoch time: 10063.23133007 Element set: 40 Inclination: 098.0475 deg RA of node: 173.7282 deg Eccentricity: 0.0006773 Arg of perigee: 167.5232 deg Mean anomaly: 192.6141 deg Mean motion: 14.69473492 rev/day Decay rate: 1.26e-06 rev/day^2 Epoch rev: 5946 Checksum: 287
/EX SB KEPS @ AMSAT $ORB10064.W Orbital Elements 10064.WEATHER
HR AMSAT ORBITAL ELEMENTS FOR WEATHER SATELLITES FROM WA5QGD FORT WORTH,TX March 5, 2010 Send Subscribe/unsubscribe to KEPS at http://www.amsat.org/mailman/listinfo/keps BID: ORB10064.W TO ALL RADIO AMATEURS BT
Satellite: NOAA-10 Catalog number: 16969 Epoch time: 10063.35859479 Element set: 979 Inclination: 098.6683 deg RA of node: 093.2583 deg Eccentricity: 0.0012771 Arg of perigee: 154.1554 deg Mean anomaly: 206.0272 deg Mean motion: 14.27408268 rev/day Decay rate: -7.0e-08 rev/day^2 Epoch rev: 22062 Checksum: 323
Satellite: NOAA-11 Catalog number: 19531 Epoch time: 10063.29953373 Element set: 993 Inclination: 098.7696 deg RA of node: 154.1107 deg Eccentricity: 0.0012294 Arg of perigee: 086.6856 deg Mean anomaly: 273.5742 deg Mean motion: 14.14917483 rev/day Decay rate: 2.71e-06 rev/day^2 Epoch rev: 10630 Checksum: 316
Satellite: NOAA-12 Catalog number: 21263 Epoch time: 10063.35562494 Element set: 477 Inclination: 098.7698 deg RA of node: 076.5104 deg Eccentricity: 0.0013253 Arg of perigee: 109.5726 deg Mean anomaly: 250.6889 deg Mean motion: 14.25619618 rev/day Decay rate: 5.9e-07 rev/day^2 Epoch rev: 97746 Checksum: 336
Satellite: MET-3/5 Catalog number: 21655 Epoch time: 10063.49504657 Element set: 751 Inclination: 082.5586 deg RA of node: 022.5944 deg Eccentricity: 0.0012221 Arg of perigee: 249.7815 deg Mean anomaly: 110.1958 deg Mean motion: 13.17019924 rev/day Decay rate: 5.1e-07 rev/day^2 Epoch rev: 89189 Checksum: 308
Satellite: MET-2/21 Catalog number: 22782 Epoch time: 10063.29214336 Element set: 712 Inclination: 082.5521 deg RA of node: 335.6684 deg Eccentricity: 0.0021972 Arg of perigee: 341.0833 deg Mean anomaly: 018.9512 deg Mean motion: 13.83643974 rev/day Decay rate: 3.0e-07 rev/day^2 Epoch rev: 83357 Checksum: 291
Satellite: OKEAN-4 Catalog number: 23317 Epoch time: 10061.83581937 Element set: 167 Inclination: 082.5374 deg RA of node: 093.1284 deg Eccentricity: 0.0020697 Arg of perigee: 229.7326 deg Mean anomaly: 130.2075 deg Mean motion: 14.82774100 rev/day Decay rate: 9.6e-07 rev/day^2 Epoch rev: 83069 Checksum: 301
